Location: Montreal
(45.5141°N, 73.5864°W)
Time: 15:16:37
(UTC-04:00)

ISS - Visible Passes

Search period start: 20 May 2018 00:00
Search period end: 30 May 2018 00:00
Orbit: 402 x 407 km, 51.6° (Epoch: 21 May)

Date Brightness Start Highest point End Pass type
(mag) Time Alt. Az. Time Alt. Az. Time Alt. Az.
20 May -2.2 00:16:30 35° N 00:16:30 35° N 00:19:04 10° NE visible
20 May -1.6 01:50:10 10° WNW 01:53:02 27° N 01:55:53 10° ENE visible
20 May -3.1 03:26:44 10° WNW 03:29:58 56° NNE 03:33:11 10° ESE visible
20 May -3.0 21:44:30 10° SSW 21:47:21 28° SE 21:50:14 10° ENE visible
20 May -3.0 23:20:31 10° W 23:23:43 51° NNW 23:26:56 10° NE visible
21 May -1.6 00:57:50 10° WNW 01:00:41 27° N 01:03:31 10° ENE visible
21 May -2.4 02:34:36 10° NW 02:37:42 40° NNE 02:40:49 10° E visible
21 May -3.5 04:11:06 10° WNW 04:14:14 43° SW 04:17:21 10° SE visible
21 May -3.8 22:28:13 10° WSW 22:31:30 80° NNW 22:34:47 10° ENE visible
22 May -1.8 00:05:24 10° WNW 00:08:19 29° N 00:11:14 10° NE visible
22 May -1.9 01:42:24 10° NW 01:45:23 31° NNE 01:48:22 10° ENE visible
22 May -4.0 03:18:50 10° WNW 03:22:06 77° SSW 03:25:22 10° SE visible
22 May -3.9 21:36:06 10° SW 21:39:20 61° SSE 21:42:34 10° ENE visible
22 May -2.1 23:12:56 10° W 23:15:58 34° NNW 23:19:00 10° NE visible
23 May -1.7 00:50:09 10° NW 00:53:02 28° N 00:55:54 10° ENE visible
23 May -3.5 02:26:39 10° WNW 02:29:54 66° NNE 02:33:09 10° ESE visible
23 May -2.5 04:03:36 10° W 04:06:08 20° SW 04:08:37 10° S visible
23 May -2.7 22:20:29 10° W 22:23:39 45° NNW 22:26:49 10° NE visible
23 May -1.6 23:57:47 10° WNW 00:00:38 26° N 00:03:29 10° ENE visible
24 May -2.7 01:34:28 10° NW 01:37:37 44° NNE 01:37:40 44° NNE visible
24 May -3.4 21:28:06 10° WSW 21:31:22 67° NNW 21:34:38 10° ENE visible
24 May -1.7 23:05:21 10° WNW 23:08:14 28° N 23:11:07 10° NE visible
25 May -2.1 00:42:15 10° NW 00:45:17 34° NNE 00:46:00 30° NE visible
25 May -1.9 22:12:51 10° WNW 22:15:50 32° NNW 22:18:50 10° NE visible
25 May -1.8 23:49:59 10° NW 23:52:54 29° N 23:54:59 15° ENE visible
26 May -1.6 01:26:27 10° WNW 01:27:35 20° WNW 01:27:35 20° WNW visible
26 May -2.4 21:20:20 10° W 21:23:27 40° NNW 21:26:35 10° NE visible
26 May -1.6 22:57:38 10° WNW 23:00:28 27° N 23:03:20 10° ENE visible
27 May -2.6 00:34:14 10° NW 00:36:46 42° NNW 00:36:46 42° NNW visible
27 May -1.7 22:05:10 10° WNW 22:08:02 27° N 22:10:54 10° ENE visible
27 May -2.4 23:42:00 10° NW 23:45:05 37° NNE 23:46:02 29° NE visible
28 May -1.0 01:18:28 10° WNW 01:18:39 11° WNW 01:18:39 11° WNW visible
28 May -1.8 21:12:38 10° WNW 21:15:36 30° N 21:18:33 10° NE visible
28 May -2.0 22:49:42 10° NW 22:52:40 30° N 22:55:21 12° ENE visible
29 May -2.2 00:26:08 10° WNW 00:27:58 30° WNW 00:27:58 30° WNW visible
29 May -1.8 21:57:20 10° WNW 22:00:12 27° N 22:03:04 10° ENE visible
29 May -3.4 23:33:53 10° WNW 23:37:08 58° NNE 23:37:19 57° NE visible
